This demonstration page uses our WeatherBlox Daily Observations layout. Learn more.

39.92423, -83.80882

Hourly Observations for September 27, 2017

Temp ( °F °C ) Dew Point ( °F °C ) Humidity (%) Winds ( mph kmh ) Pressure ( in mb ) Visibility ( mi km ) Precip ( " mm )
12:56 am 00:56 Clear 64 17.8 60 15.6 87 87 Calm 29.97 1015 10 16.09344 0 0
1:56 am 01:56 Clear 62 16.7 59 15 90 90 Calm 29.97 1015 10 16.09344 0 0
2:56 am 02:56 Clear 61 16.1 59 15 93 93 Calm 29.97 1015 10 16.09344 0 0
3:56 am 03:56 Clear 61 16.1 59 15 93 93 Calm 29.94 1014 10 16.09344 0 0
4:56 am 04:56 Clear 61 16.1 59 15 93 93 Calm 29.94 1014 10 16.09344 0 0
5:56 am 05:56 Clear 60 15.6 58 14.4 93 93 Calm 29.94 1014 10 16.09344 0 0
6:56 am 06:56 Clear 60 15.6 58 14.4 93 93 Calm 29.97 1015 10 16.09344 0 0
7:56 am 07:56 Sunny 61 16.1 59 15 93 93 Calm 29.97 1015 10 16.09344 0 0
8:56 am 08:56 Sunny 70 21.1 65 18.3 84 84 W 3 6 29.97 1015 10 16.09344 0 0
9:56 am 09:56 Sunny 77 25 64 17.8 64 64 WNW 6 9 29.97 1015 10 16.09344 0 0
10:56 am 10:56 Sunny 80 26.7 65 18.3 60 60 W 5 7 29.97 1015 10 16.09344 0 0
11:56 am 11:56 Sunny 84 28.9 66 18.9 55 55 W 8 13 29.97 1015 10 16.09344 0 0
12:56 pm 12:56 Sunny 86 30 65 18.3 49 49 W 7 11 29.94 1014 10 16.09344 0 0
1:56 pm 13:56 Sunny 87 30.6 65 18.3 48 48 NNW 13 20 29.94 1014 10 16.09344 0 0
2:56 pm 14:56 Partly Cloudy 86 30 66 18.9 51 51 NNW 14 22 29.94 1014 10 16.09344 0 0
3:56 pm 15:56 Sunny 86 30 65 18.3 49 49 NW 12 19 29.91 1013 10 16.09344 0 0
4:56 pm 16:56 Mostly Sunny 85 29.4 66 18.9 53 53 NW 12 19 29.91 1013 10 16.09344 0 0
5:56 pm 17:56 Sunny 82 27.8 67 19.4 60 60 NNW 13 20 29.94 1014 10 16.09344 0 0
6:56 pm 18:56 Mostly Sunny 78 25.6 65 18.3 64 64 NNW 12 19 29.94 1014 10 16.09344 0 0
7:56 pm 19:56 Clear 74 23.3 63 17.2 69 69 NNW 8 13 29.97 1015 10 16.09344 0 0
8:56 pm 20:56 Clear 71 21.7 58 14.4 63 63 NNW 13 20 30 1016 10 16.09344 0 0
9:56 pm 21:56 Clear 68 20 56 13.3 65 65 NNW 14 22 30 1016 10 16.09344 0 0
10:56 pm 22:56 Clear 65 18.3 54 12.2 68 68 NNW 12 19 30 1016 10 16.09344 0 0
11:56 pm 23:56 Clear 62 16.7 53 11.7 73 73 NNW 8 13 30.03 1017 10 16.09344 0 0

Powered by AerisWeather